MIDAS 4 DEB, 194

Orbit data source: Space-Track

MIDAS 4 DEB, 194 is space debris in LEO originally from a launch on Sat, 21 Oct 1961 UTC via an ATLAS AGENA B launch vehicle from the Air Force Western Test Range (AFWTR). Debris objects in space refer to the collection of defunct objects orbiting the Earth. Examples of debris include non-operational satellites, rocket bodies, and fragments generated from explosions, collisions, or faulty payload assembly.

Loading next visibility...
MIDAS 4 DEB details
Identifier
194, 1961-028C
Orbit
LEO
Last TLE update16 hours ago
Origin
Flag of USUSAF SSD (US)
ManufacturerMIT-LL
MissionSpacecraft
Bus & MotorWESTFORD, Unknown motor
Mass30 kg wet, 30 kg dry
Launch date (UTC)
1961-10-21 (63 years ago)
Launch vehicle
ATLAS AGENA B
Launch site
Air Force Western Test Range (AFWTR)
Object type
Payload
Rocket body
Debris
Shape & HBRCyl, 0.5 m
Radar Cross Section0.094 m², Medium (>0.1 m² and < 1m²)

Expand to show TLE details & history

TLE from 16 hours ago
0 MIDAS 4 DEB
1 00194U 61028C   24355.84285946  .00000010  00000-0  54288-2 0  9996
2 00194  95.8392 133.8621 0396309 357.6000   2.2961  8.70082541  5872
Epoch: 2024-12-20T20:13Z
Definitive object data (Epoch: 2024-12-20T20:13:43.057Z)
Latitude0.00005°
Longitude100.53013°
Altitude3,213.911 km
Speed6.574 km/s
True Right ascension08h 55m 26s
True Declination0° 00' 00"
Sunlit
Object was in daylight at TLE epoch
Visualization TLE readout
Latitude-73.40244°
Longitude-99.31499°
Altitude3,705.446 km
Speed6.266 km/s
Apparent Right ascension21h 47m 38s
Apparent Declination-62° 44' 33"
Sunlit
Object is in daylight
Visualization observer readout
Local Sidereal Time11:02:16
Azimuth160.036° S
Elevation-64.585°
Doppler factor1
Orbital elements
Apogee altitude4,000.679 km
Perigee altitude3,209.395 km
Semi-major axis9,983.174 km
Eccentricity0.0396309
Inclination95.8392°
RAAN133.8621°
Arg. of periapsis357.6°
True anomaly2.4875°
Mean anomaly2.2961°
Eccentric anomaly2.39082°
Mean motion2.17591 °/min
BSTAR0.0054288
Orbital period165.45 mins
Loading maneuver chart data...
Loading historical data...
Loading historical data...
Loading historical data...
Loading historical data...
Loading historical data...
Loading historical data...
Loading historical data...

MIDAS 4 DEB Visibility forecast

Observer location: undefined°, undefined

Span
Click to sort rows by Start time (UTC) header in descending order
Start Az.
Max El. time (UTC)
Max El. Az.
Max El.
End time (UTC)
End Az.
26 mins2024-12-21 19:08:32.941Z31.471° NE2024-12-21 19:21:32.941Z77.118° E20.912°2024-12-21 19:34:32.941Z120.053° SE
39 mins2024-12-21 21:48:32.941Z9.525° NNE2024-12-21 22:06:32.941Z68.832° E44.949°2024-12-21 22:27:32.941Z193.155° SSW
28 mins2024-12-22 00:33:32.941Z356.013° N2024-12-22 00:46:32.941Z307.48° NW26.518°2024-12-22 01:01:32.941Z257.674° W
11 mins2024-12-22 05:43:32.941Z50.504° ENE2024-12-22 05:48:32.941Z31.917° NE13.488°2024-12-22 05:54:32.941Z10.575° NNE
30 mins2024-12-22 08:10:32.941Z136.81° SSE2024-12-22 08:24:32.941Z68.58° E39.54°2024-12-22 08:40:32.941Z356.257° N
29 mins2024-12-22 10:54:32.941Z208.962° SW2024-12-22 11:07:32.941Z270.339° WNW34.011°2024-12-22 11:23:32.941Z341.675° N
|